Year,Month,Day,Hour,Minute,Value (Times are PST for windspeed in km/hr)
2014,04,21,00,00,6.60
2014,04,21,00,01,5.40
2014,04,21,00,02,4.70
2014,04,21,00,03,6.90
2014,04,21,00,04,7.80
2014,04,21,00,05,4.80
2014,04,21,00,06,2.10
2014,04,21,00,07,5.20
2014,04,21,00,08,6.00
2014,04,21,00,09,5.30
2014,04,21,00,10,4.70
2014,04,21,00,11,4.60
2014,04,21,00,12,7.00
2014,04,21,00,13,6.30
2014,04,21,00,14,3.80
2014,04,21,00,15,3.40
2014,04,21,00,16,5.40
2014,04,21,00,17,4.90
2014,04,21,00,18,4.10
2014,04,21,00,19,5.30
2014,04,21,00,20,6.00
2014,04,21,00,21,3.60
2014,04,21,00,22,4.80
2014,04,21,00,23,3.50
2014,04,21,00,24,3.50
2014,04,21,00,25,4.00
2014,04,21,00,26,3.80
2014,04,21,00,27,4.20
2014,04,21,00,28,4.70
2014,04,21,00,29,2.80
2014,04,21,00,30,1.60
2014,04,21,00,31,2.00
2014,04,21,00,32,2.10
2014,04,21,00,33,5.00
2014,04,21,00,34,2.40
2014,04,21,00,35,1.20
2014,04,21,00,36,2.50
2014,04,21,00,37,2.00
2014,04,21,00,38,2.70
2014,04,21,00,39,3.10
2014,04,21,00,40,1.80
2014,04,21,00,41,3.10
2014,04,21,00,42,2.70
2014,04,21,00,43,2.10
2014,04,21,00,44,1.80
2014,04,21,00,45,1.40
2014,04,21,00,46,3.00
2014,04,21,00,47,1.60
2014,04,21,00,48,2.20
2014,04,21,00,49,3.90
2014,04,21,00,50,3.90
2014,04,21,00,51,4.20
2014,04,21,00,52,2.80
2014,04,21,00,53,2.90
2014,04,21,00,54,2.40
2014,04,21,00,55,2.70
2014,04,21,00,56,3.90
2014,04,21,00,57,4.30
2014,04,21,00,58,3.20
2014,04,21,00,59,2.90
2014,04,21,01,00,2.80
2014,04,21,01,01,3.00
2014,04,21,01,02,3.50
2014,04,21,01,03,2.20
2014,04,21,01,04,3.40
2014,04,21,01,05,2.50
2014,04,21,01,06,1.00
2014,04,21,01,07,2.80
2014,04,21,01,08,2.50
2014,04,21,01,09,2.40
2014,04,21,01,10,3.20
2014,04,21,01,11,2.70
2014,04,21,01,12,1.40
2014,04,21,01,13,2.40
2014,04,21,01,14,3.00
2014,04,21,01,15,1.80
2014,04,21,01,16,1.10
2014,04,21,01,17,2.20
2014,04,21,01,18,0.70
2014,04,21,01,19,1.70
2014,04,21,01,20,2.50
2014,04,21,01,21,2.80
2014,04,21,01,22,3.10
2014,04,21,01,23,3.70
2014,04,21,01,24,2.50
2014,04,21,01,25,2.60
2014,04,21,01,26,1.10
2014,04,21,01,27,0.30
2014,04,21,01,28,0.00
2014,04,21,01,29,0.00
2014,04,21,01,30,0.60
2014,04,21,01,31,1.90
2014,04,21,01,32,3.40
2014,04,21,01,33,2.70
2014,04,21,01,34,2.20
2014,04,21,01,35,3.30
2014,04,21,01,36,2.50
2014,04,21,01,37,2.80
2014,04,21,01,38,1.70
2014,04,21,01,39,1.80
2014,04,21,01,40,2.40
2014,04,21,01,41,2.50
2014,04,21,01,42,1.80
2014,04,21,01,43,1.80
2014,04,21,01,44,2.00
2014,04,21,01,45,2.30
2014,04,21,01,46,1.30
2014,04,21,01,47,0.80
2014,04,21,01,48,1.10
2014,04,21,01,49,1.20
2014,04,21,01,50,1.60
2014,04,21,01,51,1.40
2014,04,21,01,52,1.70
2014,04,21,01,53,1.10
2014,04,21,01,54,3.70
2014,04,21,01,55,2.80
2014,04,21,01,56,3.70
2014,04,21,01,57,2.00
2014,04,21,01,58,2.50
2014,04,21,01,59,4.20
2014,04,21,02,00,3.30
2014,04,21,02,01,2.60
2014,04,21,02,02,3.50
2014,04,21,02,03,2.90
2014,04,21,02,04,2.10
2014,04,21,02,05,1.40
2014,04,21,02,06,2.40
2014,04,21,02,07,1.30
2014,04,21,02,08,2.00
2014,04,21,02,09,1.90
2014,04,21,02,10,1.30
2014,04,21,02,11,1.60
2014,04,21,02,12,0.40
2014,04,21,02,13,0.70
2014,04,21,02,14,1.80
2014,04,21,02,15,1.90
2014,04,21,02,16,1.00
2014,04,21,02,17,0.90
2014,04,21,02,18,0.90
2014,04,21,02,19,0.60
2014,04,21,02,20,0.50
2014,04,21,02,21,0.90
2014,04,21,02,22,2.90
2014,04,21,02,23,1.90
2014,04,21,02,24,2.50
2014,04,21,02,25,3.10
2014,04,21,02,26,2.80
2014,04,21,02,27,2.60
2014,04,21,02,28,2.10
2014,04,21,02,29,2.20
2014,04,21,02,30,1.60
2014,04,21,02,31,3.50
2014,04,21,02,32,2.40
2014,04,21,02,33,2.10
2014,04,21,02,34,2.10
2014,04,21,02,35,2.00
2014,04,21,02,36,1.90
2014,04,21,02,37,1.90
2014,04,21,02,38,1.80
2014,04,21,02,39,2.20
2014,04,21,02,40,1.50
2014,04,21,02,41,0.20
2014,04,21,02,42,0.40
2014,04,21,02,43,1.90
2014,04,21,02,44,0.90
2014,04,21,02,45,1.20
2014,04,21,02,46,1.40
2014,04,21,02,47,1.80
2014,04,21,02,48,1.60
2014,04,21,02,49,1.30
2014,04,21,02,50,0.30
2014,04,21,02,51,0.40
2014,04,21,02,52,0.00
2014,04,21,02,53,0.00
2014,04,21,02,54,0.00
2014,04,21,02,55,0.00
2014,04,21,02,56,0.00
2014,04,21,02,57,0.00
2014,04,21,02,58,0.00
2014,04,21,02,59,0.30
2014,04,21,03,00,1.30
2014,04,21,03,01,1.70
2014,04,21,03,02,1.60
2014,04,21,03,03,1.10
2014,04,21,03,04,1.40
2014,04,21,03,05,0.60
2014,04,21,03,06,0.20
2014,04,21,03,07,0.00
2014,04,21,03,08,0.00
2014,04,21,03,09,0.00
2014,04,21,03,10,0.00
2014,04,21,03,11,0.00
2014,04,21,03,12,0.00
2014,04,21,03,13,0.00
2014,04,21,03,14,0.00
2014,04,21,03,15,0.00
2014,04,21,03,16,0.10
2014,04,21,03,17,0.20
2014,04,21,03,18,0.10
2014,04,21,03,19,0.00
2014,04,21,03,20,0.00
2014,04,21,03,21,0.00
2014,04,21,03,22,0.00
2014,04,21,03,23,0.00
2014,04,21,03,24,0.00
2014,04,21,03,25,0.00
2014,04,21,03,26,0.00
2014,04,21,03,27,0.00
2014,04,21,03,28,0.00
2014,04,21,03,29,0.00
2014,04,21,03,30,0.20
2014,04,21,03,31,1.00
2014,04,21,03,32,1.50
2014,04,21,03,33,0.70
2014,04,21,03,34,1.10
2014,04,21,03,35,0.10
2014,04,21,03,36,0.00
2014,04,21,03,37,0.00
2014,04,21,03,38,0.00
2014,04,21,03,39,0.40
2014,04,21,03,40,1.20
2014,04,21,03,41,0.60
2014,04,21,03,42,0.10
2014,04,21,03,43,0.00
2014,04,21,03,44,0.00
2014,04,21,03,45,0.00
2014,04,21,03,46,0.00
2014,04,21,03,47,0.60
2014,04,21,03,48,1.00
2014,04,21,03,49,1.10
2014,04,21,03,50,1.30
2014,04,21,03,51,1.00
2014,04,21,03,52,0.10
2014,04,21,03,53,0.00
2014,04,21,03,54,0.10
2014,04,21,03,55,0.30
2014,04,21,03,56,0.00
2014,04,21,03,57,0.20
2014,04,21,03,58,0.70
2014,04,21,03,59,0.40
2014,04,21,04,00,0.10
2014,04,21,04,01,0.00
2014,04,21,04,02,0.00
2014,04,21,04,03,0.00
2014,04,21,04,04,0.00
2014,04,21,04,05,0.10
2014,04,21,04,06,0.60
2014,04,21,04,07,1.00
2014,04,21,04,08,2.20
2014,04,21,04,09,2.40
2014,04,21,04,10,2.30
2014,04,21,04,11,3.30
2014,04,21,04,12,2.70
2014,04,21,04,13,2.60
2014,04,21,04,14,3.50
2014,04,21,04,15,3.90
2014,04,21,04,16,4.40
2014,04,21,04,17,6.80
2014,04,21,04,18,5.40
2014,04,21,04,19,5.30
2014,04,21,04,20,3.70
2014,04,21,04,21,6.80
2014,04,21,04,22,5.90
2014,04,21,04,23,5.10
2014,04,21,04,24,4.30
2014,04,21,04,25,4.50
2014,04,21,04,26,5.00
2014,04,21,04,27,2.80
2014,04,21,04,28,2.40
2014,04,21,04,29,3.60
2014,04,21,04,30,3.50
2014,04,21,04,31,4.20
2014,04,21,04,32,4.20
2014,04,21,04,33,2.40
2014,04,21,04,34,3.00
2014,04,21,04,35,3.20
2014,04,21,04,36,4.20
2014,04,21,04,37,3.30
2014,04,21,04,38,3.90
2014,04,21,04,39,4.00
2014,04,21,04,40,5.90
2014,04,21,04,41,2.30
2014,04,21,04,42,5.30
2014,04,21,04,43,3.70
2014,04,21,04,44,4.10
2014,04,21,04,45,3.20
2014,04,21,04,46,3.80
2014,04,21,04,47,2.70
2014,04,21,04,48,4.30
2014,04,21,04,49,4.50
2014,04,21,04,50,3.70
2014,04,21,04,51,2.90
2014,04,21,04,52,2.70
2014,04,21,04,53,2.50
2014,04,21,04,54,3.90
2014,04,21,04,55,4.40
2014,04,21,04,56,2.90
2014,04,21,04,57,3.00
2014,04,21,04,58,2.40
2014,04,21,04,59,2.50
2014,04,21,05,00,2.80
2014,04,21,05,01,2.20
2014,04,21,05,02,2.70
2014,04,21,05,03,3.30
2014,04,21,05,04,3.00
2014,04,21,05,05,2.00
2014,04,21,05,06,2.50
2014,04,21,05,07,2.00
2014,04,21,05,08,3.20
2014,04,21,05,09,2.90
2014,04,21,05,10,3.20
2014,04,21,05,11,3.00
2014,04,21,05,12,3.20
2014,04,21,05,13,2.50
2014,04,21,05,14,3.40
2014,04,21,05,15,3.30
2014,04,21,05,16,1.90
2014,04,21,05,17,3.10
2014,04,21,05,18,2.50
2014,04,21,05,19,2.10
2014,04,21,05,20,2.90
2014,04,21,05,21,4.50
2014,04,21,05,22,4.00
2014,04,21,05,23,3.40
2014,04,21,05,24,2.30
2014,04,21,05,25,1.80
2014,04,21,05,26,2.20
2014,04,21,05,27,3.40
2014,04,21,05,28,2.80
2014,04,21,05,29,4.30
2014,04,21,05,30,4.50
2014,04,21,05,31,4.00
2014,04,21,05,32,4.00
2014,04,21,05,33,3.20
2014,04,21,05,34,3.20
2014,04,21,05,35,1.70
2014,04,21,05,36,2.30
2014,04,21,05,37,1.90
2014,04,21,05,38,1.60
2014,04,21,05,39,1.00
2014,04,21,05,40,0.90
2014,04,21,05,41,0.50
2014,04,21,05,42,0.50
2014,04,21,05,43,1.20
2014,04,21,05,44,2.10
2014,04,21,05,45,1.70
2014,04,21,05,46,1.10
2014,04,21,05,47,0.70
2014,04,21,05,48,1.30
2014,04,21,05,49,1.30
2014,04,21,05,50,2.80
2014,04,21,05,51,3.40
2014,04,21,05,52,2.60
2014,04,21,05,53,1.90
2014,04,21,05,54,1.20
2014,04,21,05,55,1.30
2014,04,21,05,56,2.20
2014,04,21,05,57,3.40
2014,04,21,05,58,3.20
2014,04,21,05,59,2.90
2014,04,21,06,00,2.50
2014,04,21,06,01,1.80
2014,04,21,06,02,1.20
2014,04,21,06,03,1.70
2014,04,21,06,04,1.80
2014,04,21,06,05,1.90
2014,04,21,06,06,1.60
2014,04,21,06,07,1.90
2014,04,21,06,08,3.00
2014,04,21,06,09,4.00
2014,04,21,06,10,4.20
2014,04,21,06,11,3.40
2014,04,21,06,12,2.40
2014,04,21,06,13,2.50
2014,04,21,06,14,1.80
2014,04,21,06,15,3.70
2014,04,21,06,16,2.40
2014,04,21,06,17,2.80
2014,04,21,06,18,3.20
2014,04,21,06,19,3.60
2014,04,21,06,20,2.50
2014,04,21,06,21,2.40
2014,04,21,06,22,4.50
2014,04,21,06,23,2.50
2014,04,21,06,24,2.90
2014,04,21,06,25,3.00
2014,04,21,06,26,2.70
2014,04,21,06,27,3.30
2014,04,21,06,28,2.70
2014,04,21,06,29,2.90
2014,04,21,06,30,1.80
2014,04,21,06,31,2.70
2014,04,21,06,32,1.20
2014,04,21,06,33,3.00
2014,04,21,06,34,1.90
2014,04,21,06,35,2.40
2014,04,21,06,36,1.30
2014,04,21,06,37,1.00
2014,04,21,06,38,1.40
2014,04,21,06,39,1.20
2014,04,21,06,40,0.80
2014,04,21,06,41,0.70
2014,04,21,06,42,1.10
2014,04,21,06,43,2.40
2014,04,21,06,44,1.40
2014,04,21,06,45,1.90
2014,04,21,06,46,2.50
2014,04,21,06,47,3.30
2014,04,21,06,48,2.80
2014,04,21,06,49,2.20
2014,04,21,06,50,1.90
2014,04,21,06,51,2.10
2014,04,21,06,52,0.90
2014,04,21,06,53,2.10
2014,04,21,06,54,1.90
2014,04,21,06,55,1.60
2014,04,21,06,56,0.40
2014,04,21,06,57,1.30
2014,04,21,06,58,1.90
2014,04,21,06,59,2.00
2014,04,21,07,00,1.40
2014,04,21,07,01,1.20
2014,04,21,07,02,2.10
2014,04,21,07,03,2.60
2014,04,21,07,04,1.60
2014,04,21,07,05,2.10
2014,04,21,07,06,2.30
2014,04,21,07,07,2.00
2014,04,21,07,08,1.90
2014,04,21,07,09,2.70
2014,04,21,07,10,2.70
2014,04,21,07,11,3.30
2014,04,21,07,12,3.20
2014,04,21,07,13,3.10
2014,04,21,07,14,3.30
2014,04,21,07,15,4.00
2014,04,21,07,16,3.40
2014,04,21,07,17,3.20
2014,04,21,07,18,3.50
2014,04,21,07,19,2.60
2014,04,21,07,20,2.80
2014,04,21,07,21,3.00
2014,04,21,07,22,3.10
2014,04,21,07,23,2.40
2014,04,21,07,24,1.70
2014,04,21,07,25,2.70
2014,04,21,07,26,2.40
2014,04,21,07,27,2.20
2014,04,21,07,28,2.60
2014,04,21,07,29,2.30
2014,04,21,07,30,2.80
2014,04,21,07,31,3.50
2014,04,21,07,32,2.50
2014,04,21,07,33,2.10
2014,04,21,07,34,1.10
2014,04,21,07,35,0.30
2014,04,21,07,36,0.80
2014,04,21,07,37,1.70
2014,04,21,07,38,1.20
2014,04,21,07,39,0.90
2014,04,21,07,40,0.90
2014,04,21,07,41,0.90
2014,04,21,07,42,0.30
2014,04,21,07,43,1.10
2014,04,21,07,44,0.40
2014,04,21,07,45,1.80
2014,04,21,07,46,1.10
2014,04,21,07,47,1.70
2014,04,21,07,48,1.60
2014,04,21,07,49,1.70
2014,04,21,07,50,1.20
2014,04,21,07,51,0.90
2014,04,21,07,52,1.60
2014,04,21,07,53,1.40
2014,04,21,07,54,1.60
2014,04,21,07,55,1.60
2014,04,21,07,56,1.60
2014,04,21,07,57,2.90
2014,04,21,07,58,2.10
2014,04,21,07,59,1.40
2014,04,21,08,00,3.60
2014,04,21,08,01,2.90
2014,04,21,08,02,2.30
2014,04,21,08,03,1.80
2014,04,21,08,04,1.90
2014,04,21,08,05,2.20
2014,04,21,08,06,1.30
2014,04,21,08,07,1.00
2014,04,21,08,08,1.30
2014,04,21,08,09,1.10
2014,04,21,08,10,1.00
2014,04,21,08,11,2.90
2014,04,21,08,12,2.20
2014,04,21,08,13,2.10
2014,04,21,08,14,0.80
2014,04,21,08,15,0.40
2014,04,21,08,16,1.80
2014,04,21,08,17,2.50
2014,04,21,08,18,2.60
2014,04,21,08,19,2.30
2014,04,21,08,20,1.40
2014,04,21,08,21,1.90
2014,04,21,08,22,1.70
2014,04,21,08,23,1.10
2014,04,21,08,24,1.70
2014,04,21,08,25,1.70
2014,04,21,08,26,1.60
2014,04,21,08,27,1.90
2014,04,21,08,28,3.00
2014,04,21,08,29,1.80
2014,04,21,08,30,3.20
2014,04,21,08,31,3.00
2014,04,21,08,32,3.30
2014,04,21,08,33,4.20
2014,04,21,08,34,3.50
2014,04,21,08,35,2.60
2014,04,21,08,36,2.20
2014,04,21,08,37,2.10
2014,04,21,08,38,2.50
2014,04,21,08,39,2.30
2014,04,21,08,40,0.90
2014,04,21,08,41,2.20
2014,04,21,08,42,2.10
2014,04,21,08,43,3.30
2014,04,21,08,44,4.40
2014,04,21,08,45,3.10
2014,04,21,08,46,3.50
2014,04,21,08,47,1.30
2014,04,21,08,48,2.50
2014,04,21,08,49,4.50
2014,04,21,08,50,4.40
2014,04,21,08,51,3.30
2014,04,21,08,52,2.90
2014,04,21,08,53,2.20
2014,04,21,08,54,3.40
2014,04,21,08,55,3.30
2014,04,21,08,56,4.50
2014,04,21,08,57,4.90
2014,04,21,08,58,2.80
2014,04,21,08,59,1.70
2014,04,21,09,00,4.00
2014,04,21,09,01,3.90
2014,04,21,09,02,4.40
2014,04,21,09,03,3.30
2014,04,21,09,04,3.60
2014,04,21,09,05,3.80
2014,04,21,09,06,2.30
2014,04,21,09,07,1.80
2014,04,21,09,08,2.90
2014,04,21,09,09,2.40
2014,04,21,09,10,3.90
2014,04,21,09,11,3.10
2014,04,21,09,12,3.90
2014,04,21,09,13,2.90
2014,04,21,09,14,3.80
2014,04,21,09,15,3.70
2014,04,21,09,16,4.60
2014,04,21,09,17,4.80
2014,04,21,09,18,5.30
2014,04,21,09,19,5.10
2014,04,21,09,20,4.20
2014,04,21,09,21,5.30
2014,04,21,09,22,6.00
2014,04,21,09,23,5.70
2014,04,21,09,24,5.70
2014,04,21,09,25,5.00
2014,04,21,09,26,6.20
2014,04,21,09,27,5.20
2014,04,21,09,28,5.30
2014,04,21,09,29,6.60
2014,04,21,09,30,5.40
2014,04,21,09,31,4.40
2014,04,21,09,32,5.50
2014,04,21,09,33,4.80
2014,04,21,09,34,4.20
2014,04,21,09,35,1.70
2014,04,21,09,36,3.50
2014,04,21,09,37,3.30
2014,04,21,09,38,2.50
2014,04,21,09,39,2.80
2014,04,21,09,40,3.20
2014,04,21,09,41,3.40
2014,04,21,09,42,3.30
2014,04,21,09,43,3.40
2014,04,21,09,44,4.00
2014,04,21,09,45,2.90
2014,04,21,09,46,4.00
2014,04,21,09,47,3.00
2014,04,21,09,48,2.50
2014,04,21,09,49,6.40
2014,04,21,09,50,5.10
2014,04,21,09,51,3.40
2014,04,21,09,52,3.50
2014,04,21,09,53,3.30
2014,04,21,09,54,5.10
2014,04,21,09,55,5.30
2014,04,21,09,56,5.60
2014,04,21,09,57,4.40
2014,04,21,09,58,4.50
2014,04,21,09,59,4.40
2014,04,21,10,00,4.50
2014,04,21,10,01,3.60
2014,04,21,10,02,2.40
2014,04,21,10,03,3.70
2014,04,21,10,04,4.70
2014,04,21,10,05,3.10
2014,04,21,10,06,2.00
2014,04,21,10,07,2.70
2014,04,21,10,08,3.10
2014,04,21,10,09,3.60
2014,04,21,10,10,2.40
2014,04,21,10,11,3.80
2014,04,21,10,12,2.40
2014,04,21,10,13,4.00
2014,04,21,10,14,4.10
2014,04,21,10,15,3.20
2014,04,21,10,16,4.00
2014,04,21,10,17,5.20
2014,04,21,10,18,4.80
2014,04,21,10,19,3.90
2014,04,21,10,20,4.30
2014,04,21,10,21,4.40
2014,04,21,10,22,6.10
2014,04,21,10,23,4.70
2014,04,21,10,24,4.10
2014,04,21,10,25,5.10
2014,04,21,10,26,4.30
2014,04,21,10,27,4.30
2014,04,21,10,28,4.90
2014,04,21,10,29,3.20
2014,04,21,10,30,3.00
2014,04,21,10,31,1.20
2014,04,21,10,32,1.30
2014,04,21,10,33,3.20
2014,04,21,10,34,3.40
2014,04,21,10,35,4.00
2014,04,21,10,36,4.40
2014,04,21,10,37,4.50
2014,04,21,10,38,5.70
2014,04,21,10,39,5.00
2014,04,21,10,40,3.20
2014,04,21,10,41,3.20
2014,04,21,10,42,4.40
2014,04,21,10,43,3.70
2014,04,21,10,44,3.70
2014,04,21,10,45,4.20
2014,04,21,10,46,1.90
2014,04,21,10,47,3.20
2014,04,21,10,48,3.50
2014,04,21,10,49,1.80
2014,04,21,10,50,2.50
2014,04,21,10,51,3.40
2014,04,21,10,52,3.30
2014,04,21,10,53,3.20
2014,04,21,10,54,3.70
2014,04,21,10,55,5.50
2014,04,21,10,56,1.80
2014,04,21,10,57,4.00
2014,04,21,10,58,5.10
2014,04,21,10,59,3.00
2014,04,21,11,00,1.80
2014,04,21,11,01,2.10
2014,04,21,11,02,2.70
2014,04,21,11,03,2.60
2014,04,21,11,04,3.60
2014,04,21,11,05,3.80
2014,04,21,11,06,3.00
2014,04,21,11,07,1.80
2014,04,21,11,08,1.60
2014,04,21,11,09,1.40
2014,04,21,11,10,1.20
2014,04,21,11,11,3.00
2014,04,21,11,12,3.70
2014,04,21,11,13,1.70
2014,04,21,11,14,1.50
2014,04,21,11,15,3.10
2014,04,21,11,16,3.30
2014,04,21,11,17,4.90
2014,04,21,11,18,3.20
2014,04,21,11,19,3.30
2014,04,21,11,20,5.40
2014,04,21,11,21,6.40
2014,04,21,11,22,4.00
2014,04,21,11,23,4.10
2014,04,21,11,24,5.70
2014,04,21,11,25,5.60
2014,04,21,11,26,4.10
2014,04,21,11,27,4.80
2014,04,21,11,28,5.30
2014,04,21,11,29,3.00
2014,04,21,11,30,2.70
2014,04,21,11,31,4.90
2014,04,21,11,32,5.40
2014,04,21,11,33,4.50
2014,04,21,11,34,3.00
2014,04,21,11,35,6.10
2014,04,21,11,36,6.20
2014,04,21,11,37,3.00
2014,04,21,11,38,3.40
2014,04,21,11,39,4.20
2014,04,21,11,40,4.10
2014,04,21,11,41,5.10
2014,04,21,11,42,5.30
2014,04,21,11,43,3.70
2014,04,21,11,44,2.50
2014,04,21,11,45,1.40
2014,04,21,11,46,1.40
2014,04,21,11,47,3.60
2014,04,21,11,48,6.90
2014,04,21,11,49,4.80
2014,04,21,11,50,2.30
2014,04,21,11,51,3.10
2014,04,21,11,52,4.40
2014,04,21,11,53,4.50
2014,04,21,11,54,9.40
2014,04,21,11,55,5.50
2014,04,21,11,56,6.30
2014,04,21,11,57,3.10
2014,04,21,11,58,4.90
2014,04,21,11,59,8.80
2014,04,21,12,00,6.10
2014,04,21,12,01,7.40
2014,04,21,12,02,8.10
2014,04,21,12,03,5.30
2014,04,21,12,04,8.10
2014,04,21,12,05,5.30
2014,04,21,12,06,3.20
2014,04,21,12,07,5.20
2014,04,21,12,08,8.30
2014,04,21,12,09,5.70
2014,04,21,12,10,3.70
2014,04,21,12,11,9.40
2014,04,21,12,12,7.70
2014,04,21,12,13,7.90
2014,04,21,12,14,9.00
2014,04,21,12,15,7.70
2014,04,21,12,16,7.00
2014,04,21,12,17,5.40
2014,04,21,12,18,8.10
2014,04,21,12,19,6.90
2014,04,21,12,20,2.90
2014,04,21,12,21,2.40
2014,04,21,12,22,3.40
2014,04,21,12,23,4.20
2014,04,21,12,24,3.80
2014,04,21,12,25,5.80
2014,04,21,12,26,7.60
2014,04,21,12,27,5.00
2014,04,21,12,28,5.90
2014,04,21,12,29,1.40
2014,04,21,12,30,2.50
2014,04,21,12,31,4.30
2014,04,21,12,32,1.80
2014,04,21,12,33,2.70
2014,04,21,12,34,7.20
2014,04,21,12,35,6.80
2014,04,21,12,36,4.30
2014,04,21,12,37,3.70
2014,04,21,12,38,5.00
2014,04,21,12,39,4.70
2014,04,21,12,40,3.00
2014,04,21,12,41,5.30
2014,04,21,12,42,6.60
2014,04,21,12,43,2.10
2014,04,21,12,44,6.70
2014,04,21,12,45,7.10
2014,04,21,12,46,6.20
2014,04,21,12,47,9.40
2014,04,21,12,48,8.90
2014,04,21,12,49,6.70
2014,04,21,12,50,12.50
2014,04,21,12,51,10.90
2014,04,21,12,52,5.50
2014,04,21,12,53,6.70
2014,04,21,12,54,9.00
2014,04,21,12,55,7.70
2014,04,21,12,56,9.10
2014,04,21,12,57,5.50
2014,04,21,12,58,5.60
2014,04,21,12,59,9.60
2014,04,21,13,00,8.20
2014,04,21,13,01,5.50
2014,04,21,13,02,4.30
2014,04,21,13,03,4.00
2014,04,21,13,04,2.80
2014,04,21,13,05,1.80
2014,04,21,13,06,4.80
2014,04,21,13,07,5.50
2014,04,21,13,08,4.20
2014,04,21,13,09,7.40
2014,04,21,13,10,4.70
2014,04,21,13,11,5.10
2014,04,21,13,12,4.50
2014,04,21,13,13,4.80
2014,04,21,13,14,8.10
2014,04,21,13,15,6.40
2014,04,21,13,16,5.40
2014,04,21,13,17,9.40
2014,04,21,13,18,6.30
2014,04,21,13,19,3.80
2014,04,21,13,20,5.90
2014,04,21,13,21,3.00
2014,04,21,13,22,4.20
2014,04,21,13,23,3.30
2014,04,21,13,24,3.80
2014,04,21,13,25,5.30
2014,04,21,13,26,7.90
2014,04,21,13,27,5.80
2014,04,21,13,28,4.30
2014,04,21,13,29,4.90
2014,04,21,13,30,6.40
2014,04,21,13,31,7.50
2014,04,21,13,32,4.00
2014,04,21,13,33,13.20
2014,04,21,13,34,7.90
2014,04,21,13,35,7.90
2014,04,21,13,36,8.90
2014,04,21,13,37,4.10
2014,04,21,13,38,1.40
2014,04,21,13,39,2.60
2014,04,21,13,40,4.30
2014,04,21,13,41,7.40
2014,04,21,13,42,11.00
2014,04,21,13,43,8.80
2014,04,21,13,44,8.30
2014,04,21,13,45,5.20
2014,04,21,13,46,8.10
2014,04,21,13,47,5.00
2014,04,21,13,48,4.30
2014,04,21,13,49,5.70
2014,04,21,13,50,9.70
2014,04,21,13,51,4.50
2014,04,21,13,52,3.00
2014,04,21,13,53,10.10
2014,04,21,13,54,4.40
2014,04,21,13,55,5.90
2014,04,21,13,56,6.70
2014,04,21,13,57,7.70
2014,04,21,13,58,8.90
2014,04,21,13,59,6.10
2014,04,21,14,00,7.90
2014,04,21,14,01,9.10
2014,04,21,14,02,6.00
2014,04,21,14,03,5.30
2014,04,21,14,04,7.50
2014,04,21,14,05,9.40
2014,04,21,14,06,10.80
2014,04,21,14,07,10.40
2014,04,21,14,08,11.30
2014,04,21,14,09,9.20
2014,04,21,14,10,3.00
2014,04,21,14,11,3.00
2014,04,21,14,12,2.60
2014,04,21,14,13,8.30
2014,04,21,14,14,8.20
2014,04,21,14,15,8.60
2014,04,21,14,16,8.10
2014,04,21,14,17,7.70
2014,04,21,14,18,5.70
2014,04,21,14,19,6.60
2014,04,21,14,20,8.50
2014,04,21,14,21,4.50
2014,04,21,14,22,3.00
2014,04,21,14,23,3.40
2014,04,21,14,24,7.70
2014,04,21,14,25,7.90
2014,04,21,14,26,9.70
2014,04,21,14,27,7.40
2014,04,21,14,28,9.60
2014,04,21,14,29,9.50
2014,04,21,14,30,6.00
2014,04,21,14,31,7.70
2014,04,21,14,32,6.60
2014,04,21,14,33,8.20
2014,04,21,14,34,8.40
2014,04,21,14,35,7.90
2014,04,21,14,36,6.80
2014,04,21,14,37,7.00
2014,04,21,14,38,8.40
2014,04,21,14,39,6.10
2014,04,21,14,40,9.10
2014,04,21,14,41,5.70
2014,04,21,14,42,5.30
2014,04,21,14,43,4.30
2014,04,21,14,44,4.80
2014,04,21,14,45,8.60
2014,04,21,14,46,6.80
2014,04,21,14,47,4.30
2014,04,21,14,48,6.60
2014,04,21,14,49,7.10
2014,04,21,14,50,12.00
2014,04,21,14,51,10.10
2014,04,21,14,52,11.90
2014,04,21,14,53,9.30
2014,04,21,14,54,7.30
2014,04,21,14,55,7.20
2014,04,21,14,56,8.30
2014,04,21,14,57,6.30
2014,04,21,14,58,9.80
2014,04,21,14,59,8.80
2014,04,21,15,00,2.80
2014,04,21,15,01,3.10
2014,04,21,15,02,2.20
2014,04,21,15,03,7.50
2014,04,21,15,04,6.40
2014,04,21,15,05,8.70
2014,04,21,15,06,7.30
2014,04,21,15,07,9.80
2014,04,21,15,08,9.00
2014,04,21,15,09,7.90
2014,04,21,15,10,7.70
2014,04,21,15,11,7.80
2014,04,21,15,12,7.30
2014,04,21,15,13,6.90
2014,04,21,15,14,5.00
2014,04,21,15,15,6.80
2014,04,21,15,16,3.40
2014,04,21,15,17,4.00
2014,04,21,15,18,5.10
2014,04,21,15,19,6.90
2014,04,21,15,20,5.50
2014,04,21,15,21,5.90
2014,04,21,15,22,6.40
2014,04,21,15,23,1.90
2014,04,21,15,24,6.60
2014,04,21,15,25,7.30
2014,04,21,15,26,8.40
2014,04,21,15,27,9.70
2014,04,21,15,28,8.60
2014,04,21,15,29,7.10
2014,04,21,15,30,6.30
2014,04,21,15,31,6.60
2014,04,21,15,32,6.80
2014,04,21,15,33,6.40
2014,04,21,15,34,8.90
2014,04,21,15,35,6.00
2014,04,21,15,36,6.60
2014,04,21,15,37,6.70
2014,04,21,15,38,6.40
2014,04,21,15,39,4.00
2014,04,21,15,40,2.90
2014,04,21,15,41,1.70
2014,04,21,15,42,5.00
2014,04,21,15,43,4.40
2014,04,21,15,44,7.50
2014,04,21,15,45,4.90
2014,04,21,15,46,5.90
2014,04,21,15,47,6.40
2014,04,21,15,48,6.60
2014,04,21,15,49,6.40
2014,04,21,15,50,8.60
2014,04,21,15,51,9.70
2014,04,21,15,52,7.40
2014,04,21,15,53,8.90
2014,04,21,15,54,9.40
2014,04,21,15,55,8.30
2014,04,21,15,56,9.10
2014,04,21,15,57,5.40
2014,04,21,15,58,9.80
2014,04,21,15,59,7.40
2014,04,21,16,00,6.80
2014,04,21,16,01,7.40
2014,04,21,16,02,7.40
2014,04,21,16,03,6.60
2014,04,21,16,04,7.40
2014,04,21,16,05,7.50
2014,04,21,16,06,5.30
2014,04,21,16,07,4.70
2014,04,21,16,08,7.10
2014,04,21,16,09,4.90
2014,04,21,16,10,5.70
2014,04,21,16,11,4.50
2014,04,21,16,12,6.00
2014,04,21,16,13,8.30
2014,04,21,16,14,5.10
2014,04,21,16,15,3.40
2014,04,21,16,16,4.40
2014,04,21,16,17,3.90
2014,04,21,16,18,4.90
2014,04,21,16,19,6.20
2014,04,21,16,20,7.40
2014,04,21,16,21,7.20
2014,04,21,16,22,9.80
2014,04,21,16,23,7.80
2014,04,21,16,24,5.30
2014,04,21,16,25,3.90
2014,04,21,16,26,7.40
2014,04,21,16,27,6.20
2014,04,21,16,28,6.90
2014,04,21,16,29,7.40
2014,04,21,16,30,7.50
2014,04,21,16,31,5.20
2014,04,21,16,32,6.00
2014,04,21,16,33,6.10
2014,04,21,16,34,7.20
2014,04,21,16,35,2.80
2014,04,21,16,36,5.10
2014,04,21,16,37,4.10
2014,04,21,16,38,5.40
2014,04,21,16,39,5.30
2014,04,21,16,40,4.80
2014,04,21,16,41,4.60
2014,04,21,16,42,7.40
2014,04,21,16,43,3.40
2014,04,21,16,44,3.30
2014,04,21,16,45,6.90
2014,04,21,16,46,5.80
2014,04,21,16,47,7.30
2014,04,21,16,48,2.90
2014,04,21,16,49,6.90
2014,04,21,16,50,5.70
2014,04,21,16,51,7.00
2014,04,21,16,52,7.20
2014,04,21,16,53,7.90
2014,04,21,16,54,5.50
2014,04,21,16,55,7.40
2014,04,21,16,56,3.40
2014,04,21,16,57,6.20
2014,04,21,16,58,6.20
2014,04,21,16,59,7.50
2014,04,21,17,00,5.00
2014,04,21,17,01,5.50
2014,04,21,17,02,6.20
2014,04,21,17,03,6.50
2014,04,21,17,04,4.70
2014,04,21,17,05,2.60
2014,04,21,17,06,2.90
2014,04,21,17,07,2.40
2014,04,21,17,08,1.70
2014,04,21,17,09,1.70
2014,04,21,17,10,4.50
2014,04,21,17,11,5.00
2014,04,21,17,12,6.40
2014,04,21,17,13,4.80
2014,04,21,17,14,2.10
2014,04,21,17,15,3.20
2014,04,21,17,16,3.50
2014,04,21,17,17,3.40
2014,04,21,17,18,4.80
2014,04,21,17,19,4.10
2014,04,21,17,20,3.80
2014,04,21,17,21,4.20
2014,04,21,17,22,3.80
2014,04,21,17,23,1.10
2014,04,21,17,24,1.20
2014,04,21,17,25,4.60
2014,04,21,17,26,5.30
2014,04,21,17,27,5.70
2014,04,21,17,28,3.80
2014,04,21,17,29,4.50
2014,04,21,17,30,6.70
2014,04,21,17,31,5.10
2014,04,21,17,32,2.70
2014,04,21,17,33,5.20
2014,04,21,17,34,3.90
2014,04,21,17,35,5.60
2014,04,21,17,36,5.70
2014,04,21,17,37,6.30
2014,04,21,17,38,4.90
2014,04,21,17,39,5.40
2014,04,21,17,40,7.40
2014,04,21,17,41,6.60
2014,04,21,17,42,5.30
2014,04,21,17,43,5.00
2014,04,21,17,44,2.40
2014,04,21,17,45,4.30
2014,04,21,17,46,5.10
2014,04,21,17,47,4.50
2014,04,21,17,48,5.10
2014,04,21,17,49,2.10
2014,04,21,17,50,4.30
2014,04,21,17,51,5.20
2014,04,21,17,52,5.50
2014,04,21,17,53,4.70
2014,04,21,17,54,2.60
2014,04,21,17,55,3.70
2014,04,21,17,56,2.90
2014,04,21,17,57,3.10
2014,04,21,17,58,2.20
2014,04,21,17,59,1.20
2014,04,21,18,00,0.30
2014,04,21,18,01,0.30
2014,04,21,18,02,0.50
2014,04,21,18,03,0.80
2014,04,21,18,04,0.90
2014,04,21,18,05,1.40
2014,04,21,18,06,0.80